Flag for Czech Republic Weather past 2 weeks in Ostrava, Czech Republic

Now
61 °F

Light rain. Overcast.


Feels Like: 61 °F
Forecast: 55 / 71 °F
Wind: 6 mph from Southwest

Location: Ostrava / Mosnov

Current Time: Jul 29, 2015 at 9:08:22 AM

Latest Report: Jul 29, 2015 at 8:00 AM


Visibility: 19 mi

Pressure: 29.86 "Hg

Humidity: 75%

Dew point: 53 °F

Location of OstravaLocation

Historic Weather in Ostrava — Graph

°F

Ostrava temperature yesterday

Maximum temperature yesterday: 73 °F (at 2:00 PM)
Minimum temperature yesterday: 55 °F (at 3:00 AM)
Average temperature yesterday: 66 °F

Past Weeks' High & Low Weather Summary

 TemperatureHumidityPressure
High95 °F (Jul 22, 4:00 PM)99% (Jul 25, 3:00 AM)30.16 "Hg (Jul 25, 3:00 AM)
Low51 °F (Jul 27, 4:00 AM)24% (Jul 17, 3:00 PM)29.65 "Hg (Jul 25, 1:00 PM)
Average73 °F62%29.91 "Hg
* Reported Jul 14 8:00 AM — Jul 29 8:00 AM, Ostrava, Weather by CustomWeather, © 2015

Note: Actual official high and low records may vary slightly from our data, if they occured in-between our weather recording intervals... More about our weather records

Advertising

Ostrava weather history for previous 24 hours

 ConditionsComfort  
Time TempWeatherWind HumidityBarometerVisibility
8:00 AM
Wed, Jul 29
61 °FLight rain. Overcast.6 mph75%29.86 "Hg19 mi
7:00 AM60 °FLight rain. Overcast.6 mph80%29.86 "Hg16 mi
6:00 AM60 °FLight rain. Overcast.5 mph82%29.86 "Hg16 mi
4:00 AM61 °FLight rain. Overcast.3 mph87%29.83 "Hg12 mi
3:00 AM62 °FLight rain. Overcast.3 mph81%29.82 "Hg9 mi
2:00 AM64 °FOvercast.5 mph76%29.79 "Hg19 mi
1:00 AM63 °FOvercast.5 mph79%29.80 "Hg16 mi
12:00 AM63 °FOvercast.5 mph81%29.80 "Hg16 mi
10:00 PM
Tue, Jul 28
65 °FSprinkles. Overcast.5 mph74%29.78 "Hg9 mi
9:00 PM69 °FOvercast.7 mph61%29.74 "Hg16 mi
8:00 PM71 °FPartly sunny.7 mph56%29.72 "Hg6 mi
7:00 PM72 °FScattered clouds.5 mph56%29.72 "Hg22 mi
6:00 PM72 °FPartly sunny.6 mph56%29.71 "Hg22 mi
5:00 PM70 °FOvercast.N/A71%29.72 "Hg25 mi
4:00 PM65 °FSprinkles. Overcast.3 mph78%29.75 "Hg12 mi
3:00 PM73 °FOvercast.12 mph45%29.73 "Hg19 mi
2:00 PM73 °FOvercast.7 mph47%29.75 "Hg25 mi
1:00 PM72 °FOvercast.9 mph45%29.76 "Hg19 mi
12:00 PM72 °FPartly sunny.9 mph52%29.78 "Hg31 mi
11:00 AM72 °FOvercast.9 mph51%29.78 "Hg31 mi
10:00 AM71 °FPartly sunny.10 mph53%29.78 "Hg31 mi
Weather by CustomWeather, © 2015

See weather overviewHow to use our weather pages